Year,Month,Day,Hour,Minute,Value (Times are PST for temperature in C)
2013,07,09,00,00,16.70
2013,07,09,00,01,16.70
2013,07,09,00,02,16.70
2013,07,09,00,03,16.70
2013,07,09,00,04,16.70
2013,07,09,00,05,16.70
2013,07,09,00,06,16.70
2013,07,09,00,07,16.70
2013,07,09,00,08,16.70
2013,07,09,00,09,16.70
2013,07,09,00,10,16.70
2013,07,09,00,11,16.70
2013,07,09,00,12,16.70
2013,07,09,00,13,16.70
2013,07,09,00,14,16.70
2013,07,09,00,15,16.70
2013,07,09,00,16,16.70
2013,07,09,00,17,16.70
2013,07,09,00,18,16.70
2013,07,09,00,19,16.70
2013,07,09,00,20,16.70
2013,07,09,00,21,16.70
2013,07,09,00,22,16.70
2013,07,09,00,23,16.70
2013,07,09,00,24,16.70
2013,07,09,00,25,16.70
2013,07,09,00,26,16.70
2013,07,09,00,27,16.60
2013,07,09,00,28,16.60
2013,07,09,00,29,16.60
2013,07,09,00,30,16.60
2013,07,09,00,31,16.60
2013,07,09,00,32,16.60
2013,07,09,00,33,16.60
2013,07,09,00,34,16.60
2013,07,09,00,35,16.60
2013,07,09,00,36,16.60
2013,07,09,00,37,16.60
2013,07,09,00,38,16.60
2013,07,09,00,39,16.60
2013,07,09,00,40,16.60
2013,07,09,00,41,16.50
2013,07,09,00,42,16.50
2013,07,09,00,43,16.50
2013,07,09,00,44,16.50
2013,07,09,00,45,16.40
2013,07,09,00,46,16.40
2013,07,09,00,47,16.40
2013,07,09,00,48,16.40
2013,07,09,00,49,16.30
2013,07,09,00,50,16.30
2013,07,09,00,51,16.30
2013,07,09,00,52,16.20
2013,07,09,00,53,16.20
2013,07,09,00,54,16.20
2013,07,09,00,55,16.20
2013,07,09,00,56,16.10
2013,07,09,00,57,16.10
2013,07,09,00,58,16.10
2013,07,09,00,59,16.10
2013,07,09,01,00,16.10
2013,07,09,01,01,16.10
2013,07,09,01,02,16.00
2013,07,09,01,03,16.00
2013,07,09,01,04,15.90
2013,07,09,01,05,15.90
2013,07,09,01,06,15.90
2013,07,09,01,07,15.90
2013,07,09,01,08,15.90
2013,07,09,01,09,15.90
2013,07,09,01,10,15.80
2013,07,09,01,11,15.80
2013,07,09,01,12,15.80
2013,07,09,01,13,15.80
2013,07,09,01,14,15.80
2013,07,09,01,15,15.80
2013,07,09,01,16,15.80
2013,07,09,01,17,15.80
2013,07,09,01,18,15.80
2013,07,09,01,19,15.70
2013,07,09,01,20,15.70
2013,07,09,01,21,15.70
2013,07,09,01,22,15.70
2013,07,09,01,23,15.70
2013,07,09,01,24,15.70
2013,07,09,01,25,15.70
2013,07,09,01,26,15.70
2013,07,09,01,27,15.60
2013,07,09,01,28,15.60
2013,07,09,01,29,15.60
2013,07,09,01,30,15.60
2013,07,09,01,31,15.60
2013,07,09,01,32,15.60
2013,07,09,01,33,15.50
2013,07,09,01,34,15.50
2013,07,09,01,35,15.50
2013,07,09,01,36,15.50
2013,07,09,01,37,15.50
2013,07,09,01,38,15.50
2013,07,09,01,39,15.40
2013,07,09,01,40,15.40
2013,07,09,01,41,15.40
2013,07,09,01,42,15.40
2013,07,09,01,43,15.40
2013,07,09,01,44,15.40
2013,07,09,01,45,15.40
2013,07,09,01,46,15.40
2013,07,09,01,47,15.30
2013,07,09,01,48,15.30
2013,07,09,01,49,15.30
2013,07,09,01,50,15.30
2013,07,09,01,51,15.30
2013,07,09,01,52,15.30
2013,07,09,01,53,15.30
2013,07,09,01,54,15.30
2013,07,09,01,55,15.30
2013,07,09,01,56,15.30
2013,07,09,01,57,15.30
2013,07,09,01,58,15.30
2013,07,09,01,59,15.30
2013,07,09,02,00,15.30
2013,07,09,02,01,15.30
2013,07,09,02,02,15.30
2013,07,09,02,03,15.30
2013,07,09,02,04,15.30
2013,07,09,02,05,15.30
2013,07,09,02,06,15.30
2013,07,09,02,07,15.30
2013,07,09,02,08,15.30
2013,07,09,02,09,15.30
2013,07,09,02,10,15.30
2013,07,09,02,11,15.30
2013,07,09,02,12,15.30
2013,07,09,02,13,15.30
2013,07,09,02,14,15.30
2013,07,09,02,15,15.30
2013,07,09,02,16,15.30
2013,07,09,02,17,15.20
2013,07,09,02,18,15.20
2013,07,09,02,19,15.20
2013,07,09,02,20,15.20
2013,07,09,02,21,15.20
2013,07,09,02,22,15.20
2013,07,09,02,23,15.20
2013,07,09,02,24,15.20
2013,07,09,02,25,15.20
2013,07,09,02,26,15.20
2013,07,09,02,27,15.20
2013,07,09,02,28,15.20
2013,07,09,02,29,15.10
2013,07,09,02,30,15.10
2013,07,09,02,31,15.10
2013,07,09,02,32,15.10
2013,07,09,02,33,15.10
2013,07,09,02,34,15.10
2013,07,09,02,35,15.10
2013,07,09,02,36,15.10
2013,07,09,02,37,15.10
2013,07,09,02,38,15.10
2013,07,09,02,39,15.10
2013,07,09,02,40,15.00
2013,07,09,02,41,15.00
2013,07,09,02,42,15.00
2013,07,09,02,43,15.00
2013,07,09,02,44,15.00
2013,07,09,02,45,15.00
2013,07,09,02,46,15.00
2013,07,09,02,47,14.90
2013,07,09,02,48,14.90
2013,07,09,02,49,14.90
2013,07,09,02,50,14.90
2013,07,09,02,51,14.90
2013,07,09,02,52,14.90
2013,07,09,02,53,14.90
2013,07,09,02,54,14.80
2013,07,09,02,55,14.80
2013,07,09,02,56,14.80
2013,07,09,02,57,14.80
2013,07,09,02,58,14.80
2013,07,09,02,59,14.80
2013,07,09,03,00,14.80
2013,07,09,03,01,14.80
2013,07,09,03,02,14.80
2013,07,09,03,03,14.80
2013,07,09,03,06,14.80
2013,07,09,03,07,14.80
2013,07,09,03,08,14.80
2013,07,09,03,09,14.70
2013,07,09,03,10,14.80
2013,07,09,03,11,14.70
2013,07,09,03,12,14.80
2013,07,09,03,13,14.80
2013,07,09,03,14,14.80
2013,07,09,03,15,14.80
2013,07,09,03,16,14.70
2013,07,09,03,17,14.70
2013,07,09,03,18,14.80
2013,07,09,03,19,14.80
2013,07,09,03,20,14.80
2013,07,09,03,21,14.80
2013,07,09,03,22,14.80
2013,07,09,03,23,14.80
2013,07,09,03,24,14.80
2013,07,09,03,25,14.70
2013,07,09,03,26,14.70
2013,07,09,03,27,14.80
2013,07,09,03,28,14.80
2013,07,09,03,29,14.80
2013,07,09,03,30,14.80
2013,07,09,03,31,14.80
2013,07,09,03,32,14.80
2013,07,09,03,33,14.80
2013,07,09,03,34,14.70
2013,07,09,03,35,14.70
2013,07,09,03,36,14.70
2013,07,09,03,37,14.70
2013,07,09,03,38,14.70
2013,07,09,03,39,14.70
2013,07,09,03,40,14.70
2013,07,09,03,41,14.70
2013,07,09,03,42,14.70
2013,07,09,03,43,14.60
2013,07,09,03,44,14.60
2013,07,09,03,45,14.60
2013,07,09,03,46,14.60
2013,07,09,03,47,14.60
2013,07,09,03,48,14.60
2013,07,09,03,49,14.60
2013,07,09,03,50,14.50
2013,07,09,03,51,14.50
2013,07,09,03,52,14.50
2013,07,09,03,53,14.50
2013,07,09,03,54,14.50
2013,07,09,03,55,14.40
2013,07,09,03,56,14.40
2013,07,09,03,57,14.40
2013,07,09,03,58,14.40
2013,07,09,03,59,14.40
2013,07,09,04,00,14.40
2013,07,09,04,01,14.40
2013,07,09,04,02,14.40
2013,07,09,04,03,14.40
2013,07,09,04,04,14.40
2013,07,09,04,05,14.40
2013,07,09,04,06,14.30
2013,07,09,04,07,14.30
2013,07,09,04,08,14.30
2013,07,09,04,09,14.30
2013,07,09,04,10,14.30
2013,07,09,04,11,14.30
2013,07,09,04,12,14.30
2013,07,09,04,13,14.20
2013,07,09,04,14,14.20
2013,07,09,04,15,14.20
2013,07,09,04,16,14.20
2013,07,09,04,17,14.20
2013,07,09,04,18,14.20
2013,07,09,04,19,14.20
2013,07,09,04,20,14.20
2013,07,09,04,21,14.20
2013,07,09,04,22,14.20
2013,07,09,04,23,14.20
2013,07,09,04,24,14.20
2013,07,09,04,25,14.20
2013,07,09,04,26,14.20
2013,07,09,04,27,14.20
2013,07,09,04,28,14.20
2013,07,09,04,29,14.20
2013,07,09,04,30,14.20
2013,07,09,04,31,14.20
2013,07,09,04,32,14.20
2013,07,09,04,33,14.20
2013,07,09,04,34,14.20
2013,07,09,04,35,14.20
2013,07,09,04,36,14.20
2013,07,09,04,37,14.20
2013,07,09,04,38,14.20
2013,07,09,04,39,14.20
2013,07,09,04,40,14.20
2013,07,09,04,41,14.20
2013,07,09,04,42,14.20
2013,07,09,04,43,14.20
2013,07,09,04,44,14.20
2013,07,09,04,45,14.20
2013,07,09,04,46,14.20
2013,07,09,04,47,14.10
2013,07,09,04,48,14.10
2013,07,09,04,49,14.10
2013,07,09,04,50,14.10
2013,07,09,04,51,14.10
2013,07,09,04,52,14.10
2013,07,09,04,53,14.10
2013,07,09,04,54,14.10
2013,07,09,04,55,14.10
2013,07,09,04,56,14.10
2013,07,09,04,57,14.00
2013,07,09,04,58,14.00
2013,07,09,04,59,14.00
2013,07,09,05,00,14.00
2013,07,09,05,01,14.00
2013,07,09,05,02,13.90
2013,07,09,05,03,13.90
2013,07,09,05,04,13.90
2013,07,09,05,05,13.90
2013,07,09,05,06,13.90
2013,07,09,05,07,13.80
2013,07,09,05,08,13.80
2013,07,09,05,09,13.80
2013,07,09,05,10,13.80
2013,07,09,05,11,13.80
2013,07,09,05,12,13.80
2013,07,09,05,13,13.80
2013,07,09,05,14,13.80
2013,07,09,05,15,13.80
2013,07,09,05,16,13.80
2013,07,09,05,17,13.80
2013,07,09,05,18,13.80
2013,07,09,05,19,13.80
2013,07,09,05,20,13.70
2013,07,09,05,21,13.70
2013,07,09,05,22,13.70
2013,07,09,05,23,13.70
2013,07,09,05,24,13.70
2013,07,09,05,25,13.70
2013,07,09,05,26,13.70
2013,07,09,05,27,13.70
2013,07,09,05,28,13.70
2013,07,09,05,29,13.70
2013,07,09,05,30,13.70
2013,07,09,05,31,13.70
2013,07,09,05,32,13.70
2013,07,09,05,33,13.60
2013,07,09,05,34,13.60
2013,07,09,05,35,13.60
2013,07,09,05,36,13.60
2013,07,09,05,37,13.60
2013,07,09,05,38,13.60
2013,07,09,05,39,13.60
2013,07,09,05,40,13.60
2013,07,09,05,41,13.60
2013,07,09,05,42,13.60
2013,07,09,05,43,13.60
2013,07,09,05,44,13.60
2013,07,09,05,45,13.60
2013,07,09,05,46,13.60
2013,07,09,05,47,13.60
2013,07,09,05,48,13.60
2013,07,09,05,49,13.60
2013,07,09,05,50,13.60
2013,07,09,05,51,13.60
2013,07,09,05,52,13.60
2013,07,09,05,53,13.60
2013,07,09,05,54,13.60
2013,07,09,05,55,13.60
2013,07,09,05,56,13.60
2013,07,09,05,57,13.60
2013,07,09,05,58,13.60
2013,07,09,05,59,13.60
2013,07,09,06,00,13.50
2013,07,09,06,01,13.50
2013,07,09,06,02,13.50
2013,07,09,06,03,13.50
2013,07,09,06,04,13.50
2013,07,09,06,05,13.50
2013,07,09,06,06,13.50
2013,07,09,06,07,13.50
2013,07,09,06,08,13.50
2013,07,09,06,09,13.40
2013,07,09,06,10,13.40
2013,07,09,06,11,13.40
2013,07,09,06,12,13.40
2013,07,09,06,13,13.40
2013,07,09,06,14,13.40
2013,07,09,06,15,13.40
2013,07,09,06,16,13.40
2013,07,09,06,17,13.40
2013,07,09,06,18,13.50
2013,07,09,06,19,13.50
2013,07,09,06,20,13.50
2013,07,09,06,21,13.50
2013,07,09,06,22,13.50
2013,07,09,06,23,13.50
2013,07,09,06,24,13.50
2013,07,09,06,25,13.60
2013,07,09,06,26,13.60
2013,07,09,06,27,13.60
2013,07,09,06,28,13.60
2013,07,09,06,29,13.60
2013,07,09,06,30,13.60
2013,07,09,06,31,13.60
2013,07,09,06,32,13.60
2013,07,09,06,33,13.60
2013,07,09,06,34,13.60
2013,07,09,06,35,13.60
2013,07,09,06,36,13.60
2013,07,09,06,37,13.60
2013,07,09,06,38,13.70
2013,07,09,06,39,13.70
2013,07,09,06,40,13.70
2013,07,09,06,41,13.80
2013,07,09,06,42,13.80
2013,07,09,06,43,13.80
2013,07,09,06,44,13.90
2013,07,09,06,45,14.00
2013,07,09,06,46,14.00
2013,07,09,06,47,14.10
2013,07,09,06,48,14.10
2013,07,09,06,49,14.20
2013,07,09,06,50,14.20
2013,07,09,06,51,14.30
2013,07,09,06,52,14.30
2013,07,09,06,53,14.40
2013,07,09,06,54,14.50
2013,07,09,06,55,14.50
2013,07,09,06,56,14.50
2013,07,09,06,57,14.60
2013,07,09,06,58,14.60
2013,07,09,06,59,14.60
2013,07,09,07,00,14.70
2013,07,09,07,01,14.70
2013,07,09,07,02,14.70
2013,07,09,07,03,14.80
2013,07,09,07,04,14.80
2013,07,09,07,05,14.90
2013,07,09,07,06,14.90
2013,07,09,07,07,14.90
2013,07,09,07,08,15.00
2013,07,09,07,09,15.00
2013,07,09,07,10,15.00
2013,07,09,07,11,15.10
2013,07,09,07,12,15.10
2013,07,09,07,13,15.10
2013,07,09,07,14,15.20
2013,07,09,07,15,15.20
2013,07,09,07,16,15.30
2013,07,09,07,17,15.30
2013,07,09,07,18,15.30
2013,07,09,07,19,15.40
2013,07,09,07,20,15.40
2013,07,09,07,21,15.40
2013,07,09,07,22,15.40
2013,07,09,07,23,15.30
2013,07,09,07,24,15.30
2013,07,09,07,25,15.30
2013,07,09,07,26,15.20
2013,07,09,07,27,15.10
2013,07,09,07,28,15.10
2013,07,09,07,29,15.00
2013,07,09,07,30,15.00
2013,07,09,07,31,15.00
2013,07,09,07,32,15.00
2013,07,09,07,33,15.00
2013,07,09,07,34,15.10
2013,07,09,07,35,15.10
2013,07,09,07,36,15.00
2013,07,09,07,37,15.00
2013,07,09,07,38,15.00
2013,07,09,07,39,15.00
2013,07,09,07,40,15.00
2013,07,09,07,41,15.00
2013,07,09,07,42,15.00
2013,07,09,07,43,15.00
2013,07,09,07,44,15.10
2013,07,09,07,45,15.00
2013,07,09,07,46,15.10
2013,07,09,07,47,15.00
2013,07,09,07,48,15.00
2013,07,09,07,49,15.00
2013,07,09,07,50,15.00
2013,07,09,07,51,15.10
2013,07,09,07,52,15.10
2013,07,09,07,53,15.20
2013,07,09,07,54,15.30
2013,07,09,07,55,15.30
2013,07,09,07,56,15.40
2013,07,09,07,57,15.40
2013,07,09,07,58,15.50
2013,07,09,07,59,15.50
2013,07,09,08,00,15.60
2013,07,09,08,01,15.60
2013,07,09,08,02,15.70
2013,07,09,08,03,15.70
2013,07,09,08,04,15.70
2013,07,09,08,05,15.70
2013,07,09,08,06,15.80
2013,07,09,08,07,15.80
2013,07,09,08,08,15.80
2013,07,09,08,09,15.90
2013,07,09,08,10,15.90
2013,07,09,08,11,15.90
2013,07,09,08,12,16.00
2013,07,09,08,13,16.10
2013,07,09,08,14,16.10
2013,07,09,08,15,16.20
2013,07,09,08,16,16.30
2013,07,09,08,17,16.40
2013,07,09,08,18,16.50
2013,07,09,08,19,16.60
2013,07,09,08,20,16.70
2013,07,09,08,21,16.70
2013,07,09,08,22,16.80
2013,07,09,08,23,16.80
2013,07,09,08,24,16.80
2013,07,09,08,25,16.80
2013,07,09,08,26,16.80
2013,07,09,08,27,16.80
2013,07,09,08,28,16.80
2013,07,09,08,29,16.80
2013,07,09,08,30,16.70
2013,07,09,08,31,16.70
2013,07,09,08,32,16.70
2013,07,09,08,33,16.70
2013,07,09,08,34,16.70
2013,07,09,08,35,16.70
2013,07,09,08,36,16.70
2013,07,09,08,37,16.70
2013,07,09,08,38,16.70
2013,07,09,08,39,16.70
2013,07,09,08,40,16.80
2013,07,09,08,41,16.80
2013,07,09,08,42,16.80
2013,07,09,08,43,16.80
2013,07,09,08,44,16.80
2013,07,09,08,45,16.80
2013,07,09,08,46,16.80
2013,07,09,08,47,16.80
2013,07,09,08,48,16.90
2013,07,09,08,49,17.00
2013,07,09,08,50,17.00
2013,07,09,08,51,17.10
2013,07,09,08,52,17.20
2013,07,09,08,53,17.20
2013,07,09,08,54,17.20
2013,07,09,08,55,17.20
2013,07,09,08,56,17.20
2013,07,09,08,57,17.30
2013,07,09,08,58,17.30
2013,07,09,08,59,17.40
2013,07,09,09,00,17.50
2013,07,09,09,01,17.50
2013,07,09,09,02,17.60
2013,07,09,09,03,17.60
2013,07,09,09,04,17.60
2013,07,09,09,05,17.60
2013,07,09,09,06,17.70
2013,07,09,09,07,17.80
2013,07,09,09,08,17.80
2013,07,09,09,09,17.90
2013,07,09,09,10,17.90
2013,07,09,09,11,18.00
2013,07,09,09,12,18.10
2013,07,09,09,13,18.10
2013,07,09,09,14,18.20
2013,07,09,09,15,18.30
2013,07,09,09,16,18.30
2013,07,09,09,17,18.40
2013,07,09,09,18,18.50
2013,07,09,09,19,18.60
2013,07,09,09,20,18.70
2013,07,09,09,21,18.80
2013,07,09,09,22,18.90
2013,07,09,09,23,19.00
2013,07,09,09,24,19.10
2013,07,09,09,25,19.20
2013,07,09,09,26,19.20
2013,07,09,09,27,19.30
2013,07,09,09,28,19.30
2013,07,09,09,29,19.30
2013,07,09,09,30,19.30
2013,07,09,09,31,19.40
2013,07,09,09,32,19.40
2013,07,09,09,33,19.50
2013,07,09,09,34,19.60
2013,07,09,09,35,19.70
2013,07,09,09,36,19.70
2013,07,09,09,37,19.70
2013,07,09,09,38,19.80
2013,07,09,09,39,19.70
2013,07,09,09,40,19.70
2013,07,09,09,41,19.70
2013,07,09,09,42,19.70
2013,07,09,09,43,19.70
2013,07,09,09,44,19.70
2013,07,09,09,45,19.60
2013,07,09,09,46,19.60
2013,07,09,09,47,19.60
2013,07,09,09,48,19.60
2013,07,09,09,49,19.60
2013,07,09,09,50,19.60
2013,07,09,09,51,19.60
2013,07,09,09,52,19.60
2013,07,09,09,53,19.60
2013,07,09,09,54,19.60
2013,07,09,09,55,19.70
2013,07,09,09,56,19.80
2013,07,09,09,57,19.80
2013,07,09,09,58,19.90
2013,07,09,09,59,19.90
2013,07,09,10,00,19.90
2013,07,09,10,01,19.90
2013,07,09,10,02,19.90
2013,07,09,10,03,20.00
2013,07,09,10,04,19.90
2013,07,09,10,05,19.90
2013,07,09,10,06,19.90
2013,07,09,10,07,19.90
2013,07,09,10,08,19.90
2013,07,09,10,09,19.90
2013,07,09,10,10,20.00
2013,07,09,10,11,20.10
2013,07,09,10,12,20.10
2013,07,09,10,13,20.10
2013,07,09,10,14,20.20
2013,07,09,10,15,20.30
2013,07,09,10,16,20.30
2013,07,09,10,17,20.40
2013,07,09,10,18,20.40
2013,07,09,10,19,20.50
2013,07,09,10,20,20.50
2013,07,09,10,21,20.60
2013,07,09,10,22,20.70
2013,07,09,10,23,20.80
2013,07,09,10,24,20.90
2013,07,09,10,25,21.00
2013,07,09,10,26,21.10
2013,07,09,10,27,21.20
2013,07,09,10,28,21.20
2013,07,09,10,29,21.30
2013,07,09,10,30,21.30
2013,07,09,10,31,21.30
2013,07,09,10,32,21.30
2013,07,09,10,33,21.30
2013,07,09,10,34,21.30
2013,07,09,10,35,21.30
2013,07,09,10,36,21.30
2013,07,09,10,37,21.30
2013,07,09,10,38,21.30
2013,07,09,10,39,21.30
2013,07,09,10,40,21.30
2013,07,09,10,41,21.40
2013,07,09,10,42,21.40
2013,07,09,10,43,21.40
2013,07,09,10,44,21.50
2013,07,09,10,45,21.50
2013,07,09,10,46,21.60
2013,07,09,10,47,21.60
2013,07,09,10,48,21.60
2013,07,09,10,49,21.70
2013,07,09,10,50,21.70
2013,07,09,10,51,21.70
2013,07,09,10,52,21.70
2013,07,09,10,53,21.70
2013,07,09,10,54,21.70
2013,07,09,10,55,21.80
2013,07,09,10,56,21.80
2013,07,09,10,57,21.80
2013,07,09,10,58,21.80
2013,07,09,10,59,21.90
2013,07,09,11,00,22.00
2013,07,09,11,01,22.00
2013,07,09,11,02,22.10
2013,07,09,11,03,22.20
2013,07,09,11,04,22.10
2013,07,09,11,05,22.10
2013,07,09,11,06,22.10
2013,07,09,11,07,22.10
2013,07,09,11,08,22.00
2013,07,09,11,09,21.90
2013,07,09,11,10,21.90
2013,07,09,11,11,21.90
2013,07,09,11,12,21.90
2013,07,09,11,13,21.90
2013,07,09,11,14,21.90
2013,07,09,11,15,21.90
2013,07,09,11,16,21.90
2013,07,09,11,17,22.00
2013,07,09,11,18,22.00
2013,07,09,11,19,22.10
2013,07,09,11,20,22.20
2013,07,09,11,21,22.20
2013,07,09,11,22,22.30
2013,07,09,11,23,22.30
2013,07,09,11,24,22.30
2013,07,09,11,25,22.40
2013,07,09,11,26,22.50
2013,07,09,11,27,22.50
2013,07,09,11,28,22.60
2013,07,09,11,29,22.60
2013,07,09,11,30,22.70
2013,07,09,11,31,22.70
2013,07,09,11,32,22.70
2013,07,09,11,33,22.70
2013,07,09,11,34,22.70
2013,07,09,11,35,22.80
2013,07,09,11,36,22.90
2013,07,09,11,37,23.00
2013,07,09,11,38,23.10
2013,07,09,11,39,23.20
2013,07,09,11,40,23.30
2013,07,09,11,41,23.30
2013,07,09,11,42,23.30
2013,07,09,11,43,23.30
2013,07,09,11,44,23.30
2013,07,09,11,45,23.30
2013,07,09,11,46,23.40
2013,07,09,11,47,23.50
2013,07,09,11,48,23.60
2013,07,09,11,49,23.70
2013,07,09,11,50,23.70
2013,07,09,11,51,23.70
2013,07,09,11,52,23.70
2013,07,09,11,53,23.80
2013,07,09,11,54,23.80
2013,07,09,11,55,23.80
2013,07,09,11,56,23.80
2013,07,09,11,57,23.90
2013,07,09,11,58,24.00
2013,07,09,11,59,24.20
2013,07,09,12,00,24.30
2013,07,09,12,01,24.40
2013,07,09,12,02,24.40
2013,07,09,12,03,24.50
2013,07,09,12,04,24.50
2013,07,09,12,05,24.60
2013,07,09,12,06,24.70
2013,07,09,12,07,24.80
2013,07,09,12,08,24.70
2013,07,09,12,09,24.70
2013,07,09,12,10,24.80
2013,07,09,12,11,24.80
2013,07,09,12,12,24.80
2013,07,09,12,13,24.90
2013,07,09,12,14,24.90
2013,07,09,12,15,24.90
2013,07,09,12,16,24.90
2013,07,09,12,17,25.00
2013,07,09,12,18,25.00
2013,07,09,12,19,25.10
2013,07,09,12,20,25.10
2013,07,09,12,21,25.20
2013,07,09,12,22,25.30
2013,07,09,12,23,25.30
2013,07,09,12,24,25.40
2013,07,09,12,25,25.50
2013,07,09,12,26,25.60
2013,07,09,12,27,25.60
2013,07,09,12,28,25.60
2013,07,09,12,29,25.60
2013,07,09,12,30,25.60
2013,07,09,12,31,25.50
2013,07,09,12,32,25.50
2013,07,09,12,33,25.50
2013,07,09,12,34,25.60
2013,07,09,12,35,25.70
2013,07,09,12,36,25.60
2013,07,09,12,37,25.60
2013,07,09,12,38,25.60
2013,07,09,12,39,25.60
2013,07,09,12,40,25.70
2013,07,09,12,41,25.70
2013,07,09,12,42,25.70
2013,07,09,12,43,25.70
2013,07,09,12,44,25.80
2013,07,09,12,45,26.00
2013,07,09,12,46,26.10
2013,07,09,12,47,26.20
2013,07,09,12,48,26.40
2013,07,09,12,49,26.50
2013,07,09,12,50,26.60
2013,07,09,12,51,26.70
2013,07,09,12,52,26.80
2013,07,09,12,53,26.80
2013,07,09,12,54,26.80
2013,07,09,12,55,26.90
2013,07,09,12,56,27.10
2013,07,09,12,57,27.20
2013,07,09,12,58,27.30
2013,07,09,12,59,27.40
2013,07,09,13,00,27.40
2013,07,09,13,01,27.50
2013,07,09,13,02,27.50
2013,07,09,13,03,27.60
2013,07,09,13,04,27.60
2013,07,09,13,05,27.70
2013,07,09,13,06,27.80
2013,07,09,13,07,27.90
2013,07,09,13,08,28.00
2013,07,09,13,09,28.10
2013,07,09,13,10,28.20
2013,07,09,13,11,28.20
2013,07,09,13,12,28.20
2013,07,09,13,13,28.20
2013,07,09,13,14,28.30
2013,07,09,13,15,28.30
2013,07,09,13,16,28.40
2013,07,09,13,17,28.40
2013,07,09,13,18,28.50
2013,07,09,13,19,28.50
2013,07,09,13,20,28.50
2013,07,09,13,21,28.40
2013,07,09,13,22,28.40
2013,07,09,13,23,28.40
2013,07,09,13,24,28.30
2013,07,09,13,25,28.30
2013,07,09,13,26,28.30
2013,07,09,13,27,28.30
2013,07,09,13,28,28.30
2013,07,09,13,29,28.30
2013,07,09,13,30,28.30
2013,07,09,13,31,28.30
2013,07,09,13,32,28.20
2013,07,09,13,33,28.20
2013,07,09,13,34,28.20
2013,07,09,13,35,28.20
2013,07,09,13,36,28.20
2013,07,09,13,37,28.20
2013,07,09,13,38,28.20
2013,07,09,13,39,28.20
2013,07,09,13,40,28.30
2013,07,09,13,41,28.30
2013,07,09,13,42,28.30
2013,07,09,13,43,28.30
2013,07,09,13,44,28.30
2013,07,09,13,45,28.40
2013,07,09,13,46,28.50
2013,07,09,13,47,28.50
2013,07,09,13,48,28.50
2013,07,09,13,49,28.60
2013,07,09,13,50,28.70
2013,07,09,13,51,28.70
2013,07,09,13,52,28.70
2013,07,09,13,53,28.70
2013,07,09,13,54,28.80
2013,07,09,13,55,28.80
2013,07,09,13,56,28.80
2013,07,09,13,57,28.80
2013,07,09,13,58,28.70
2013,07,09,13,59,28.60
2013,07,09,14,00,28.60
2013,07,09,14,01,28.60
2013,07,09,14,02,28.50
2013,07,09,14,03,28.40
2013,07,09,14,04,28.30
2013,07,09,14,05,28.30
2013,07,09,14,06,28.30
2013,07,09,14,07,28.20
2013,07,09,14,08,28.20
2013,07,09,14,09,28.20
2013,07,09,14,10,28.10
2013,07,09,14,11,28.10
2013,07,09,14,12,28.00
2013,07,09,14,13,28.10
2013,07,09,14,14,28.10
2013,07,09,14,15,28.10
2013,07,09,14,16,28.10
2013,07,09,14,17,28.10
2013,07,09,14,18,28.10
2013,07,09,14,19,28.10
2013,07,09,14,20,28.00
2013,07,09,14,21,27.90
2013,07,09,14,22,27.80
2013,07,09,14,23,27.80
2013,07,09,14,24,27.80
2013,07,09,14,25,27.80
2013,07,09,14,26,27.80
2013,07,09,14,27,27.90
2013,07,09,14,28,27.90
2013,07,09,14,29,27.80
2013,07,09,14,30,27.80
2013,07,09,14,31,27.70
2013,07,09,14,32,27.80
2013,07,09,14,33,27.80
2013,07,09,14,34,27.80
2013,07,09,14,35,27.90
2013,07,09,14,36,27.90
2013,07,09,14,37,27.90
2013,07,09,14,38,27.90
2013,07,09,14,39,27.90
2013,07,09,14,40,27.80
2013,07,09,14,41,27.80
2013,07,09,14,42,27.80
2013,07,09,14,43,27.90
2013,07,09,14,44,27.90
2013,07,09,14,45,28.00
2013,07,09,14,46,28.00
2013,07,09,14,47,28.10
2013,07,09,14,48,28.10
2013,07,09,14,49,28.20
2013,07,09,14,50,28.10
2013,07,09,14,51,28.10
2013,07,09,14,52,28.10
2013,07,09,14,53,28.10
2013,07,09,14,54,28.10
2013,07,09,14,55,28.10
2013,07,09,14,56,28.10
2013,07,09,14,57,28.10
2013,07,09,14,58,28.20
2013,07,09,14,59,28.20
2013,07,09,15,00,28.10
2013,07,09,15,01,28.10
2013,07,09,15,02,28.10
2013,07,09,15,03,28.10
2013,07,09,15,04,28.20
2013,07,09,15,05,28.20
2013,07,09,15,06,28.20
2013,07,09,15,07,28.30
2013,07,09,15,08,28.40
2013,07,09,15,09,28.40
2013,07,09,15,10,28.40
2013,07,09,15,11,28.40
2013,07,09,15,12,28.40
2013,07,09,15,13,28.30
2013,07,09,15,14,28.30
2013,07,09,15,15,28.30
2013,07,09,15,16,28.30
2013,07,09,15,17,28.40
2013,07,09,15,18,28.40
2013,07,09,15,19,28.40
2013,07,09,15,20,28.40
2013,07,09,15,21,28.40
2013,07,09,15,22,28.40
2013,07,09,15,23,28.50
2013,07,09,15,24,28.40
2013,07,09,15,25,28.40
2013,07,09,15,26,28.20
2013,07,09,15,27,28.10
2013,07,09,15,28,28.10
2013,07,09,15,29,28.10
2013,07,09,15,30,28.20
2013,07,09,15,31,28.30
2013,07,09,15,32,28.40
2013,07,09,15,33,28.40
2013,07,09,15,34,28.30
2013,07,09,15,35,28.20
2013,07,09,15,36,28.10
2013,07,09,15,37,28.10
2013,07,09,15,38,28.10
2013,07,09,15,39,28.10
2013,07,09,15,40,28.10
2013,07,09,15,41,28.10
2013,07,09,15,42,28.10
2013,07,09,15,43,28.10
2013,07,09,15,44,28.10
2013,07,09,15,45,28.20
2013,07,09,15,46,28.20
2013,07,09,15,47,28.20
2013,07,09,15,48,28.20
2013,07,09,15,49,28.10
2013,07,09,15,50,28.10
2013,07,09,15,51,28.10
2013,07,09,15,52,28.10
2013,07,09,15,53,28.10
2013,07,09,15,54,28.10
2013,07,09,15,55,28.10
2013,07,09,15,56,28.10
2013,07,09,15,57,28.10
2013,07,09,15,58,28.10
2013,07,09,15,59,28.10
2013,07,09,16,00,28.10
2013,07,09,16,01,28.10
2013,07,09,16,02,28.20
2013,07,09,16,03,28.20
2013,07,09,16,04,28.30
2013,07,09,16,05,28.20
2013,07,09,16,06,28.10
2013,07,09,16,07,28.00
2013,07,09,16,08,27.90
2013,07,09,16,09,27.90
2013,07,09,16,10,27.90
2013,07,09,16,11,27.90
2013,07,09,16,12,27.80
2013,07,09,16,13,27.80
2013,07,09,16,14,27.80
2013,07,09,16,15,27.80
2013,07,09,16,16,27.80
2013,07,09,16,17,27.70
2013,07,09,16,18,27.70
2013,07,09,16,19,27.80
2013,07,09,16,20,27.90
2013,07,09,16,21,27.90
2013,07,09,16,22,27.90
2013,07,09,16,23,27.80
2013,07,09,16,24,27.80
2013,07,09,16,25,27.80
2013,07,09,16,26,27.80
2013,07,09,16,27,27.90
2013,07,09,16,28,27.90
2013,07,09,16,29,27.90
2013,07,09,16,30,28.00
2013,07,09,16,31,28.10
2013,07,09,16,32,28.10
2013,07,09,16,33,28.10
2013,07,09,16,34,28.20
2013,07,09,16,35,28.20
2013,07,09,16,36,28.20
2013,07,09,16,37,28.10
2013,07,09,16,38,28.00
2013,07,09,16,39,27.90
2013,07,09,16,40,27.80
2013,07,09,16,41,27.80
2013,07,09,16,42,27.80
2013,07,09,16,43,27.70
2013,07,09,16,44,27.70
2013,07,09,16,45,27.70
2013,07,09,16,46,27.70
2013,07,09,16,47,27.70
2013,07,09,16,48,27.70
2013,07,09,16,49,27.80
2013,07,09,16,50,27.80
2013,07,09,16,51,27.80
2013,07,09,16,52,27.70
2013,07,09,16,53,27.70
2013,07,09,16,54,27.70
2013,07,09,16,55,27.60
2013,07,09,16,56,27.60
2013,07,09,16,57,27.70
2013,07,09,16,58,27.70
2013,07,09,16,59,27.60
2013,07,09,17,00,27.60
2013,07,09,17,01,27.70
2013,07,09,17,02,27.70
2013,07,09,17,03,27.70
2013,07,09,17,04,27.70
2013,07,09,17,05,27.70
2013,07,09,17,06,27.60
2013,07,09,17,07,27.60
2013,07,09,17,08,27.70
2013,07,09,17,09,27.70
2013,07,09,17,10,27.70
2013,07,09,17,11,27.70
2013,07,09,17,12,27.70
2013,07,09,17,13,27.80
2013,07,09,17,14,27.70
2013,07,09,17,15,27.70
2013,07,09,17,16,27.70
2013,07,09,17,17,27.70
2013,07,09,17,18,27.70
2013,07,09,17,19,27.70
2013,07,09,17,20,27.70
2013,07,09,17,21,27.70